Location: B?ogocice
(50.2413°N, 20.2361°E)
Time: 15:09:36
(UTC+00:00)

SAR-Lupe-4 - Pass Details

Date: 15 September 2024
Orbit: 476 x 483 km, 98.1° (Epoch: 03 October)

Event Time Altitude Azimuth Distance (km) Brightness Sun altitude
Rises 02:36:10 0° 11° (NNE) 2,558 7.8 -16.0°
Reaches altitude 10° 02:38:15 10° 9° (N) 1,672 6.7 -15.7°
Maximum altitude 02:41:49 65° 287° (WNW) 536 3.5 -15.2°
Enters shadow 02:43:49 24° 211° (SSW) 1,040 4.8 -14.9°
